When you browse on this site, cookies collect data to enhance your experience and personalize the content and advertising you see.
Visit our Privacy Policy to learn more. By continuing to use the site, you agree to this use of cookies and data.

Hourly Weather Northampton

Today, 4 July, Saturday

Time Temperature Precipitation Wind Pressure Humidity
00:00 +15°C° 0 mm 8 mps 749 mmHg 87%
01:00 +15°C° 0.1 mm 8 mps 748 mmHg 90%
02:00 +15°C° 0.1 mm 8 mps 748 mmHg 92%
03:00 +15°C° 0.1 mm 8 mps 747 mmHg 94%
04:00 +16°C° 0.1 mm 8 mps 747 mmHg 94%
05:00 +16°C° 0.1 mm 8 mps 747 mmHg 94%
06:00 +16°C° 0.1 mm 8 mps 747 mmHg 93%
07:00 +17°C° 0 mm 8 mps 747 mmHg 91%
08:00 +18°C° 0 mm 8 mps 747 mmHg 89%
09:00 +18°C° 0 mm 8 mps 748 mmHg 87%
10:00 +20°C° 0 mm 8 mps 748 mmHg 84%
11:00 +20°C° 0 mm 7 mps 748 mmHg 82%
12:00 +21°C° 0 mm 7 mps 748 mmHg 80%
13:00 +21°C° 0.1 mm 7 mps 748 mmHg 80%
14:00 +21°C° 0.1 mm 7 mps 748 mmHg 80%
15:00 +21°C° 0.1 mm 7 mps 748 mmHg 80%
16:00 +21°C° 0 mm 7 mps 748 mmHg 81%
17:00 +20°C° 0 mm 7 mps 748 mmHg 83%
18:00 +18°C° 0 mm 7 mps 748 mmHg 84%
19:00 +18°C° 0 mm 7 mps 748 mmHg 86%
20:00 +17°C° 0 mm 7 mps 747 mmHg 88%
21:00 +16°C° 0 mm 7 mps 747 mmHg 90%
22:00 +17°C° 0 mm 7 mps 747 mmHg 86%
23:00 +17°C° 0 mm 8 mps 747 mmHg 83%

Tomorrow, 5 July, Sunday

Time Temperature Precipitation Wind Pressure Humidity
00:00 +17°C° 0 mm 9 mps 747 mmHg 80%
01:00 +17°C° 0 mm 9 mps 746 mmHg 79%
02:00 +17°C° 0 mm 10 mps 746 mmHg 79%
03:00 +18°C° 0 mm 10 mps 746 mmHg 79%
04:00 +17°C° 0.1 mm 10 mps 746 mmHg 80%
05:00 +17°C° 0.1 mm 9 mps 746 mmHg 81%
06:00 +16°C° 0.1 mm 9 mps 746 mmHg 82%
07:00 +16°C° 0.1 mm 9 mps 746 mmHg 78%
08:00 +16°C° 0.1 mm 9 mps 747 mmHg 74%
09:00 +16°C° 0.1 mm 10 mps 747 mmHg 70%
10:00 +16°C° 0 mm 10 mps 747 mmHg 68%
11:00 +16°C° 0 mm 9 mps 748 mmHg 66%
12:00 +16°C° 0 mm 9 mps 748 mmHg 64%
13:00 +16°C° 0 mm 9 mps 748 mmHg 65%
14:00 +15°C° 0 mm 9 mps 748 mmHg 66%
15:00 +15°C° 0 mm 9 mps 748 mmHg 67%
16:00 +15°C° 0.1 mm 8 mps 748 mmHg 69%
17:00 +13°C° 0.1 mm 8 mps 748 mmHg 71%
18:00 +13°C° 0.1 mm 8 mps 748 mmHg 73%
19:00 +12°C° 0 mm 8 mps 749 mmHg 72%
20:00 +11°C° 0 mm 8 mps 749 mmHg 72%
21:00 +11°C° 0 mm 8 mps 749 mmHg 72%
22:00 +10°C° 0 mm 7 mps 749 mmHg 73%
23:00 +10°C° 0 mm 7 mps 749 mmHg 75%

Day after tomorrow, 6 July, Monday

Time Temperature Precipitation Wind Pressure Humidity
00:00 +10°C° 0 mm 7 mps 750 mmHg 76%
01:00 +10°C° 0 mm 6 mps 750 mmHg 78%
02:00 +9°C° 0 mm 6 mps 750 mmHg 80%
03:00 +9°C° 0 mm 6 mps 750 mmHg 82%
04:00 +9°C° 0 mm 6 mps 751 mmHg 81%
05:00 +10°C° 0 mm 6 mps 751 mmHg 80%
06:00 +10°C° 0 mm 6 mps 752 mmHg 80%
07:00 +11°C° 0 mm 7 mps 752 mmHg 78%
08:00 +11°C° 0 mm 7 mps 753 mmHg 76%
09:00 +12°C° 0 mm 7 mps 753 mmHg 74%
10:00 +14°C° 0.1 mm 7 mps 753 mmHg 71%
11:00 +15°C° 0.1 mm 8 mps 754 mmHg 69%
12:00 +17°C° 0.1 mm 8 mps 754 mmHg 67%
13:00 +17°C° 0.3 mm 7 mps 755 mmHg 68%
14:00 +17°C° 0.3 mm 7 mps 755 mmHg 69%
15:00 +17°C° 0.3 mm 6 mps 756 mmHg 70%
16:00 +17°C° 0.2 mm 6 mps 756 mmHg 71%
17:00 +16°C° 0.2 mm 5 mps 756 mmHg 73%
18:00 +16°C° 0.2 mm 5 mps 757 mmHg 75%
19:00 +14°C° 0 mm 4 mps 757 mmHg 76%
20:00 +12°C° 0 mm 4 mps 757 mmHg 78%
21:00 +10°C° 0 mm 3 mps 758 mmHg 80%
22:00 +10°C° 0 mm 3 mps 758 mmHg 81%
23:00 +9°C° 0 mm 3 mps 758 mmHg 83%

7 July, Tuesday

Time Temperature Precipitation Wind Pressure Humidity
00:00 +8°C° 0 mm 3 mps 758 mmHg 84%
01:00 +8°C° 0 mm 3 mps 758 mmHg 87%
02:00 +8°C° 0 mm 3 mps 758 mmHg 90%
03:00 +7°C° 0 mm 3 mps 758 mmHg 92%
04:00 +8°C° 0 mm 3 mps 758 mmHg 90%
05:00 +9°C° 0 mm 3 mps 758 mmHg 88%
06:00 +10°C° 0 mm 3 mps 758 mmHg 85%
07:00 +12°C° 0 mm 3 mps 758 mmHg 79%
08:00 +13°C° 0 mm 3 mps 758 mmHg 73%
09:00 +14°C° 0 mm 3 mps 758 mmHg 67%
10:00 +16°C° 0 mm 3 mps 758 mmHg 64%
11:00 +17°C° 0 mm 3 mps 758 mmHg 61%
12:00 +18°C° 0 mm 3 mps 758 mmHg 58%
13:00 +18°C° 0 mm 3 mps 758 mmHg 59%
14:00 +19°C° 0 mm 3 mps 757 mmHg 59%
15:00 +19°C° 0 mm 3 mps 757 mmHg 59%
16:00 +19°C° 0 mm 3 mps 757 mmHg 63%
17:00 +19°C° 0 mm 3 mps 757 mmHg 67%
18:00 +18°C° 0 mm 3 mps 756 mmHg 71%
19:00 +17°C° 0 mm 3 mps 756 mmHg 73%
20:00 +15°C° 0 mm 4 mps 756 mmHg 75%
21:00 +14°C° 0 mm 4 mps 756 mmHg 77%
22:00 +13°C° 0 mm 4 mps 756 mmHg 78%
23:00 +12°C° 0 mm 5 mps 755 mmHg 78%

8 July, Wednesday

Time Temperature Precipitation Wind Pressure Humidity
00:00 +10°C° 0 mm 5 mps 755 mmHg 79%
01:00 +10°C° 0 mm 5 mps 754 mmHg 79%
02:00 +10°C° 0 mm 6 mps 754 mmHg 80%
03:00 +10°C° 0 mm 6 mps 753 mmHg 81%
04:00 +11°C° 0 mm 7 mps 753 mmHg 83%
05:00 +12°C° 0 mm 7 mps 753 mmHg 84%
06:00 +13°C° 0 mm 8 mps 753 mmHg 86%
07:00 +14°C° 0 mm 7 mps 753 mmHg 85%
08:00 +15°C° 0 mm 7 mps 753 mmHg 85%
09:00 +16°C° 0 mm 7 mps 753 mmHg 85%
10:00 +16°C° 0 mm 6 mps 753 mmHg 86%
11:00 +16°C° 0 mm 6 mps 753 mmHg 87%
12:00 +16°C° 0 mm 6 mps 753 mmHg 88%
13:00 +16°C° 0.1 mm 5 mps 753 mmHg 88%
14:00 +16°C° 0.1 mm 5 mps 753 mmHg 88%
15:00 +17°C° 0.1 mm 4 mps 753 mmHg 88%
16:00 +15°C° 0 mm 4 mps 753 mmHg 87%
17:00 +14°C° 0 mm 3 mps 753 mmHg 86%
18:00 +14°C° 0 mm 3 mps 753 mmHg 85%
19:00 +13°C° 0 mm 3 mps 754 mmHg 84%
20:00 +13°C° 0 mm 2 mps 754 mmHg 84%
21:00 +13°C° 0 mm 2 mps 754 mmHg 83%
22:00 +13°C° 0 mm 2 mps 754 mmHg 83%
23:00 +12°C° 0 mm 2 mps 754 mmHg 82%

9 July, Thursday

Time Temperature Precipitation Wind Pressure Humidity
00:00 +12°C° 0 mm 2 mps 754 mmHg 82%
01:00 +12°C° 0.2 mm 1 mps 754 mmHg 84%
02:00 +12°C° 0.2 mm 1 mps 754 mmHg 86%
03:00 +11°C° 0.2 mm 0 mps 754 mmHg 87%
04:00 +11°C° 0.5 mm 0 mps 754 mmHg 90%
05:00 +11°C° 0.5 mm 0 mps 754 mmHg 92%
06:00 +10°C° 0.5 mm 0 mps 754 mmHg 94%
07:00 +11°C° 0.4 mm 0 mps 754 mmHg 94%
08:00 +12°C° 0.4 mm 1 mps 754 mmHg 93%
09:00 +12°C° 0.4 mm 1 mps 754 mmHg 92%
10:00 +13°C° 0 mm 1 mps 754 mmHg 87%
11:00 +14°C° 0 mm 1 mps 755 mmHg 81%
12:00 +16°C° 0 mm 1 mps 755 mmHg 75%
13:00 +18°C° 0 mm 1 mps 755 mmHg 71%
14:00 +19°C° 0 mm 1 mps 754 mmHg 67%
15:00 +19°C° 0 mm 1 mps 754 mmHg 62%
16:00 +19°C° 0 mm 1 mps 754 mmHg 64%
17:00 +19°C° 0 mm 1 mps 754 mmHg 66%
18:00 +19°C° 0 mm 1 mps 754 mmHg 68%
19:00 +16°C° 0 mm 1 mps 754 mmHg 72%
20:00 +15°C° 0 mm 1 mps 754 mmHg 77%
21:00 +13°C° 0 mm 1 mps 755 mmHg 81%
22:00 +12°C° 0 mm 1 mps 754 mmHg 82%
23:00 +11°C° 0 mm 1 mps 754 mmHg 83%
Show more